SL-14 R/B

Satellite information

Favourite Embed

Satellite Type and Status

ROCKET BODYIN ORBIT

Key statistics

Satellite SL-14 R/B at a glance.

Uptime

11297

Days in orbit

Revolutions

≈ 12.4

Per day

Orbit

LEO

Low Earth Orbit

Inclination

73.6

Latest

Satellite identification and parameters

Extended collection of information and parameters for SL-14 R/B.

Object identification

Identified? True

Debris? False

Object name: SL-14 R/B

International designator: 1994-078B

Object number (NORAD): 23412

Object ID (CCSDS): 23412

Country: COMMONWEALTH OF INDEPENDENT STATES (CIS)

Current information (Y/N): Y

RCS size: LARGE

Orbital parameters

Period: 116.035 minutes

Inclination: 73.6136 deg

SMA: 7880.472 km

Apoapsis: 1537.227 km

Periapsis: 1467.447 km

RAAN: 104.4211 deg

Eccentricy: 0.00442738

Argument of periapsis: 268.9402 deg

Mean anomaly: 151.4056 deg

Mean motion: 12.41007502 rev/day

Mean motion (dot): 0.00000007 rev/day2

B* drag term: 0.00018166774 1/REarth

Two-line elements (TLE)

Creation date: Nov. 1, 2025, 7:40 p.m.

Reference frame: TEME

Reference center: EARTH

Epoch: Nov. 1, 2025, 11:01 a.m. UTC

TLE line 0: 0 SL-14 R/B

TLE line 1: 1 23412U 94078B 25305.45937568 .00000007 00000-0 18167-3 0 9995

TLE line 2: 2 23412 73.6136 104.4211 0044274 268.9402 151.4056 12.41007502401127

Live tracking on map

Real-time ground track for satellite SL-14 R/B.

In-orbit conjunctions

A list of the most updated potential collisions computed for object SL-14 R/B.

Target Orbit TCA Probability of collision Miss distance Type
COSMOS 830 LEO 2025-10-31 05:08:32 0.0001271044 183.0 (m) PAYLOAD

Associated space launch

A satellite for the GEO-IK geodetic system

SL-14 R/B was lifted into orbit during the mission ‘Tsiklon-3 | Geo-IK 14’, on board a Tsiklon-3 space rocket.

The launch took place on Nov. 29, 1994, 2:54 a.m. from 32/2.

For more information about the launch, click the button.

Launch to space Tsiklon-3 | Geo-IK 14
Tsiklon-3 | Geo-IK 14

Agency: N/A

Status: Launch Successful

Launch date: Nov. 29, 1994, 2:54 a.m. UTC

Rocket: Tsiklon-3

Launch pad: 32/2

Location: Plesetsk Cosmodrome, Russian Federation

...

Latest news about this satellite

There are no fresh news available about this satellite. Check back as we update our databases every day.


Newsletter sign-up

Weekly statistics, charts and insights to help you stay on top of the space industry.